OpenBCM V2.0.3 (Linux)

Packet Radio Mailbox

IZ3LSV

[San Dona' di P. JN]

 Login: GUEST





  
LU9DCE > KEPS     09.01.18 18:42l 258 Lines 12955 Bytes #999 (0) @ LUNET
BID : 28954_LU9DCE
Read: GUEST
Subj: SAT TLE OF 9
Path: IZ3LSV<IQ2LB<IQ5KG<IK1NHL<CX2SA<EA2RCF<LU9DCE
Sent: 180109/1601Z @:LU9DCE.TOR.BA.ARG.SOAM #:28954 [TORTUGUITAS] FBB7.0.8-beta
From: LU9DCE@LU9DCE.TOR.BA.ARG.SOAM
To  : KEPS@LUNET


            __    _  _  ___  ____   ___  ____    ____  ____  ____
           (  )  / )( \/ _ \(    \ / __)(  __)  (  _ \(  _ \/ ___)
           / (_/\) \/ (\__  )) D (( (__  ) _)    ) _ ( ) _ (\___ \
           \____/\____/(___/(____/ \___)(____)  (____/(____/(____/
               ESTACION DE PACKET RADIO - BUENOS AIRES (GF05OM)
                   BOLETINES INFORMATIVOS PROGRAMADOS (BIP)
                    LU9DCE@GMX.COM - RF 147070 @ 1200 BAUD
                        https://lu9dce.wordpress.com/
                      telnet lu9dce.dynu.com port 6300

+------------------------------------------------------------------------------+
OSCAR 7
1 07530U 74089B   18009.53863247 -.00000023  00000-0  13205-3 0  9999
2 07530 101.6639 339.3906 0011850 283.3550 190.5144 12.53630626974713
OSCAR 11 (UoSAT 2)
1 14781U 84021B   18009.16950026  .00000067  00000-0  14529-4 0  9991
2 14781  97.6712  51.9804 0007249 239.5844 120.4654 14.82972036820878
OSCAR 19 (LUSAT)
1 20442U 90005G   18009.42150881  .00000017  00000-0  22385-4 0  9995
2 20442  98.5960 309.0184 0010642 258.2428 101.7562 14.32883737461155
KITSAT B
1 22825U 93061C   18009.18242045  .00000004  00000-0  19192-4 0  9992
2 22825  98.8421 342.5994 0009481  90.2384 269.9884 14.30018703266846
POSAT 1
1 22826U 93061D   18009.51581843  .00000010  00000-0  21589-4 0  9992
2 22826  98.8362 342.9954 0009996  80.3827 279.8484 14.30349365267077
RADIO ROSTO
1 23439U 94085A   18008.86655237 -.00000051  00000-0 -24776-3 0  9993
2 23439  64.8148 246.5048 0162352 210.2941 227.4611 11.27566313948763
JAS 2
1 24278U 96046B   18009.02688244 -.00000071  00000-0 -38028-4 0  9995
2 24278  98.5316 229.5756 0350674 163.6544 197.6253 13.53080503 56717
TECHSAT 1B
1 25397U 98043D   18008.84240653 -.00000002  00000-0  18190-4 0  9995
2 25397  98.6340 312.0599 0002282 106.4267 253.7163 14.23637552 13051
ISS (ZARYA)
1 25544U 98067A   18008.62394841  .00001631  00000-0  31726-4 0  9998
2 25544  51.6424  94.1745 0003213 354.0612 110.2657 15.54272651 93703
PCSAT
1 26931U 01043C   18008.38588964 -.00000019 +00000-0 +24504-4 0  9997
2 26931 067.0518 281.7429 0005242 275.5161 084.5342 14.30489985849629
SAUDISAT 1C
1 27607U 02058C   18008.86078077 -.00000026  00000-0  16851-4 0  9991
2 27607  64.5537 217.0169 0045798   8.6027 351.5850 14.75410294809456
CUTE-1
1 27844U 03031E   18009.01923626  .00000057  00000-0  45481-4 0  9997
2 27844  98.6886  20.0142 0010769 110.3663 249.8673 14.22087523753574
CUBESAT XI 4
1 27848U 03031J   18009.00482759  .00000027  00000-0  32348-4 0  9992
2 27848  98.6975  20.3419 0010604 119.4101 240.8136 14.21695134753445
MOZHAYETS 4
1 27939U 03042A   18009.55946941  .00000123  00000-0  30602-4 0  9991
2 27939  97.9656 153.0325 0011720 293.7464 133.7844 14.66647605763561
CUBESAT XI 5
1 28895U 05043F   18008.36065863 +.00000129 +00000-0 +33651-4 0  9992
2 28895 097.8855 166.5103 0016207 210.8595 149.1656 14.63495488650267
CUTE-1.7+APD II
1 32785U 08021C   18008.54960341 +.00000196 +00000-0 +26984-4 0  9994
2 32785 097.5541 028.3004 0012528 201.7816 158.2870 14.88042108525366
DELFI C3
1 32789U 08021G   18008.23616885 +.00001646 +00000-0 +11797-3 0  9991
2 32789 097.5347 066.9516 0013861 121.5275 238.7307 15.05658386527619
SEEDS
1 32791U 08021J   18009.09819962  .00000286  00000-0  34735-4 0  9997
2 32791  97.5472  33.7913 0013374 182.0111 178.1056 14.90440400525811
YUBELEINY
1 32953U 08025A   18009.24349473  .00000018  00000-0  60511-4 0  9997
2 32953  82.5041 111.5348 0019415 193.6083 166.4475 12.43080854437021
PRISM (HITOMI)
1 33493U 09002B   18009.39466421  .00001005  00000-0  94996-4 0  9993
2 33493  98.1458 265.2600 0016516 117.8308 242.4593 14.96034876486608
KKS-1 (KISEKI)
1 33499U 09002H   18009.54084796  .00000114  00000-0  24842-4 0  9990
2 33499  98.3456 186.2216 0010424  79.4692 280.7690 14.75282627481783
SWISSCUBE
1 35932U 09051B   18008.94872978  .00000130  00000-0  40432-4 0  9999
2 35932  98.5213 156.5059 0007196 347.2815  12.8200 14.56108722440261
BEESAT
1 35933U 09051C   18008.43791538  .00000104  00000-0  34378-4 0  9999
2 35933  98.5252 157.4280 0005745   5.2940 354.8317 14.56217611440298
ITUPSAT 1
1 35935U 09051E   18009.36525165  .00000099  00000-0  33915-4 0  9994
2 35935  98.5364 158.6302 0007851 353.5059   6.6034 14.55401363440221
XIWANG-1 (HOPE-1)
1 36122U 09072B   18009.54205533 -.00000019  00000-0  59826-4 0  9992
2 36122 100.0856  31.5409 0008096 117.0531 243.1410 13.16342899387783
TISAT 1
1 36799U 10035E   18008.83554961  .00000475  00000-0  54500-4 0  9995
2 36799  98.0841 141.0806 0012580  17.9846 342.1814 14.90662584406410
JUGNU
1 37839U 11058B   18008.15192574  .00000279  00000-0  71376-5 0  9993
2 37839  19.9615 287.6684 0018830 282.4697 214.9068 14.12605722322717
SRMSAT
1 37841U 11058D   18008.22231479  .00000294  00000-0  16098-4 0  9998
2 37841  19.9733 333.1446 0011926 172.6202 312.5425 14.10595656322269
M-CUBED/EXP-1 PRIME
1 37855U 11061F   18008.50021669  .00000877  00000-0  53212-4 0  9992
2 37855 101.7209 349.3363 0177898 194.6282 164.9743 15.03966126337649
HORYU 2
1 38340U 12025D   18008.57744169 +.00000202 +00000-0 +37765-4 0  9994
2 38340 098.3750 024.7451 0011617 005.1141 355.0183 14.75480379293167
STRAND 1
1 39090U 13009E   18008.50793000  .00000031  00000-0  26351-4 0  9990
2 39090  98.5339 216.8230 0010116  55.2164 304.9972 14.35005857254928
BEESAT 3
1 39134U 13015E   18008.86740588  .00001039  00000-0  59091-4 0  9994
2 39134  64.8639 282.0981 0029474 231.1108 128.7389 15.18700571260708
SOMP
1 39135U 13015F   18008.23684191  .00000851  00000-0  53479-4 0  9998
2 39135  64.8701 295.4518 0030524 255.7217 104.0518 15.16303786260395
BEESAT 2
1 39136U 13015G   18008.28318682 +.00000691 +00000-0 +45956-4 0  9996
2 39136 064.8705 297.6656 0031499 253.7545 106.0114 15.15789146259963
CUBEBUG 1
1 39153U 13018D   18009.19684218  .00000209  00000-0  34325-4 0  9993
2 39153  97.9823 105.3888 0018376 101.0523 259.2756 14.80321743254078
ZACUBE
1 39417U 13066B   18008.65122039  .00000200  00000-0  31805-4 0  9998
2 39417  97.6059  45.6553 0058128 318.7078  40.9747 14.80856216223186
TRITON 1
1 39427U 13066M   18008.89971525  .00000212  00000-0  41697-4 0  9990
2 39427  97.6365  15.4474 0115277  50.2133 310.9155 14.67594111221216
GOMX 1
1 39430U 13066Q   18009.47453273  .00000239  00000-0  51807-4 0  9997
2 39430  97.6806 357.9512 0152970 111.4063 250.3536 14.59002240220015
HUMSAT D
1 39433U 13066T   18008.73641532  .00000283  00000-0  33442-4 0  9999
2 39433  97.6274  70.5152 0029690 252.4390 107.3585 14.91712705224655
50 SAT
1 39436U 13066W   18009.00251036  .00065201  00000-0  97339-3 0  9994
2 39436  97.7112 132.3580 0005478  52.8068 307.3685 15.54822422228413
CUBEBUG 2
1 39440U 13066AA  18008.85755046  .00000219  00000-0  37651-4 0  9991
2 39440  97.6116  33.4829 0080374 353.9740   6.0496 14.75593922222428
FUNCUBE 1
1 39444U 13066AE  18008.59488400 +.00000240 +00000-0 +36273-4 0  9996
2 39444 097.6074 046.9225 0057232 314.8083 044.8485 14.81618037221437
UWE-3
1 39446U 13066AG  18008.61153195 +.00000212 +00000-0 +35050-4 0  9992
2 39446 097.6076 039.0876 0069655 337.2315 022.5811 14.78126834220952
SPROUT
1 39770U 14029E   18009.42305750  .00000588  00000-0  72386-4 0  9997
2 39770  97.8758 111.8759 0009363  19.8917 340.2658 14.86622229196770
UNISAT 6
1 40012U 14033C   18008.73193464  .00000185  00000-0  35256-4 0  9991
2 40012  97.8300 250.6855 0058494 354.1625   5.8895 14.73748347191210
DUCHIFAT 1
1 40021U 14033M   18009.32874808  .00000427  00000-0  49974-4 0  9996
2 40021  97.9174 287.7622 0012826 348.4438  11.6483 14.90164133193292
QB50P1
1 40025U 14033R   18009.18281421  .00000287  00000-0  36864-4 0  9995
2 40025  97.9091 284.8774 0012421 354.6982   5.4101 14.88612837193131
CHUBUSAT 1
1 40300U 14070C   18009.06292080  .00000596  00000-0  29542-4 0  9990
2 40300  97.3800  90.0665 0022142  98.9287 357.6217 15.21333430176084
NUDT-PHONESAT
1 40900U 15049B   18008.56888601 +.00001963 +00000-0 +92515-4 0  9996
2 40900 097.4424 018.7360 0012478 223.1546 136.8712 15.20636559127656
ZDPS 2A
1 40901U 15049C   18009.49982840  .00000841  00000-0  46177-4 0  9997
2 40901  97.4587  18.3645 0012612 224.7333 135.2884 15.16789819127601
ZDPS 2B
1 40902U 15049D   18009.05686993  .00000848  00000-0  46784-4 0  9991
2 40902  97.4472  16.2220 0012716 223.2655 136.7580 15.16600149127525
XW-2A
1 40903U 15049E   18009.52077931  .00001796  00000-0  47279-4 0  9993
2 40903  97.4029  42.6904 0012931 239.3340 120.6632 15.39871522129380
KAITUO 1A
1 40904U 15049F   18009.49964913  .00000478  00000-0  29234-4 0  9992
2 40904  97.4570  16.0916 0013320 224.9405 286.3011 15.14841520127472
OBJECT G
1 40905U 15049G   18009.51784453  .00000394  00000-0  25357-4 0  9994
2 40905  97.4552  14.4559 0014891 215.1071 144.9181 15.13824916127413
XW-2C
1 40906U 15049H   18009.47996982  .00000643  00000-0  37964-4 0  9996
2 40906  97.4577  15.9311 0014111 215.1237 144.9066 15.14966422127469
XW-2D
1 40907U 15049J   18009.51339873  .00000712  00000-0  41466-4 0  9991
2 40907  97.4549  15.6830 0013548 212.5457 147.4941 15.15100960127479
LILACSAT 2
1 40908U 15049K   18008.54034763  .00000321  00000-0  21591-4 0  9997
2 40908  97.4655  14.2865 0015074 216.9325 143.0870 15.13376155127224
XW-2F
1 40910U 15049M   18009.51498352  .00001053  00000-0  57871-4 0  9999
2 40910  97.4560  16.7152 0014375 209.2567 150.7862 15.16183900127407
XW-2B
1 40911U 15049N   18009.12908686  .00000704  00000-0  41098-4 0  9999
2 40911  97.4588  15.7800 0013405 214.5000 145.5364 15.15050555127318
